Other Public Products
Issued by NWS Grand Forks, ND

Home | Current Version | Previous Version | Graphics & Text | Print | Product List | Glossary On
Versions: 1 2 3 4 5 6 7 8 9 10 11 12 13 14 15 16 17 18 19 20 21 22 23 24 25 26 27 28 29 30 31 32 33 34 35 36 37 38 39 40 41 42 43 44 45 46 47 48 49 50
000
FPUS83 KFGF 271810
OPUFGF
PRAIRIE TO PINES WEATHER ROUNDUP
NATIONAL WEATHER SERVICE EASTERN NORTH DAKOTA/GRAND FORKS ND
100 PM CDT THU AUG 27 2015

 **SATELLITE DATA USED TO AUGMENT SKY COVER AT AUTOMATED STATIONS**
 *****  WEATHER ACROSS EASTERN NORTH DAKOTA  *****

CITY           SKY/WX    TMP DP  RH WIND       PRES   REMARKS
GRAND FORKS    PTSUNNY   73  59  61 S9        29.95F
6HR MIN TEMP:  52; 6HR MAX TEMP:  73;

GRAND FORKS AF PTSUNNY   73  60  63 S9        29.96S
GRAND CITY NWS   N/A     73 N/A N/A S6          N/A
BUXTON         NOT AVBL
DEVILS LAKE    PTSUNNY   75  61  60 SE8       29.94F
6HR MIN TEMP:  55; 6HR MAX TEMP:  75;

FARGO          MOSUNNY   76  62  62 S7        29.96S
6HR MIN TEMP:  58; 6HR MAX TEMP:  76;

WAHPETON ARPT  NOT AVBL
$$

 *****  WEATHER ACROSS CENTRAL AND WESTERN NORTH DAKOTA  *****

CITY           SKY/WX    TMP DP  RH WIND       PRES   REMARKS
JAMESTOWN      PTSUNNY   74  65  73 S8        29.96F
6HR MIN TEMP:  58; 6HR MAX TEMP:  75;

BISMARCK       CLOUDY    75  65  70 S6        29.98S
6HR MIN TEMP:  58; 6HR MAX TEMP:  77;

MINOT          PTSUNNY   75  62  64 N3        29.95F
6HR MIN TEMP:  53; 6HR MAX TEMP:  75;

MINOT AFB      PTSUNNY   79  66  64 VRB1      29.94F
6HR MIN TEMP:  53; 6HR MAX TEMP:  79;

GARRISON         N/A     78  65  63 VRB6      29.96F
6HR MIN TEMP:  61; 6HR MAX TEMP:  78;

WILLISTON      MOSUNNY   79  64  60 SE3       29.96F
6HR MIN TEMP:  58; 6HR MAX TEMP:  79;

DICKINSON      CLOUDY    82  58  43 S7        29.96F
6HR MIN TEMP:  59; 6HR MAX TEMP:  82;

HETTINGER      PTSUNNY   79  59  50 S12G21    29.99F
6HR MIN TEMP:  55; 6HR MAX TEMP:  79;

$$

 *****  OTHER OBSERVATIONS NORTHEAST NORTH DAKOTA  *****

CITY           SKY/WX    TMP DP  RH WIND       PRES   REMARKS
WALHALLA       NOT AVBL
LANGDON        FAIR      82  63  51 CALM      29.95F
CAVALIER       NOT AVBL
GRAFTON        FAIR      73  61  64 SE7       29.96F
CANDO          NOT AVBL
FORT TOTTEN      N/A     77  65  67 SE6       29.95S
ROLLA          NOT AVBL
RUGBY          NOT AVBL
 ***** THE ABOVE OBSERVATIONS ARE NON NWS ARE NOT QUALITY
        CONTROLLED AND MAY MIS-REPORT RAIN FOR SNOW...
$$

 *****  OTHER OBSERVATIONS SOUTHEAST NORTH DAKOTA *****

CITY           SKY/WX    TMP DP  RH WIND       PRES   REMARKS
COOPERSTOWN    NOT AVBL
VALLEY CITY    FAIR      73  68  83 S7        29.97F
OAKES          NOT AVBL
GWINNER        FAIR      75  66  73 SE6       29.97F
SHEYENNE NWR     N/A     76  66  71 SE5       29.95S
BUFFALO        NOT AVBL
WYNDMERE         N/A     77  64  65 S1          N/A
 ***** THE ABOVE OBSERVATIONS ARE NON NWS ARE NOT QUALITY
       CONTROLLED AND MAY MIS-REPORT RAIN FOR SNOW...
$$

  *****  WEATHER ACROSS NORTHERN MINNESOTA  *****

CITY           SKY/WX    TMP DP  RH WIND       PRES   REMARKS
FLAG ISLAND    SUNNY     66  57  72 S7        29.98F
WARROAD        SUNNY     70  63  78 NE6       29.99S
ROSEAU         SUNNY     73  57  56 CALM      29.98S
HALLOCK        SUNNY     75  61  60 SE3       29.94F
THF RVR FALLS  MOSUNNY  N/A N/A N/A SE7       29.96F
HALSTAD        NOT AVBL
FOSSTON        PTSUNNY   73  59  60 SE6       29.99S
BAUDETTE       SUNNY     73  55  53 S3        29.99F
6HR MIN TEMP:  47; 6HR MAX TEMP:  73;

WASKISH        SUNNY     73  59  60 S5        29.99F
CROOKSTON      MOSUNNY   73  61  64 SE7       29.97S
$$
  *****  WEATHER ACROSS CENTRAL AND WEST MINNESOTA  *****

CITY           SKY/WX    TMP DP  RH WIND       PRES   REMARKS
BEMIDJI        MOSUNNY   71  59  66 S8        30.00F
PARK RAPIDS    PTSUNNY   74  59  59 SE9       30.00F
6HR MIN TEMP:  55; 6HR MAX TEMP:  74;

WADENA         SUNNY     72  61  68 S7        30.00S
DETROIT LAKES  MOSUNNY   72  61  68 S8        30.00S
MOORHEAD       MOSUNNY   73  63  68 S7        29.97F
FERGUS FALLS   SUNNY     73  63  68 SE6       29.97F
ELBOW LAKE     FAIR      72  63  74 S9        29.98F
6HR MIN TEMP:  59; 6HR MAX TEMP:  72;

MORRIS MN      PTSUNNY   72  63  73 E6        29.96F
STAPLES        MOSUNNY   72  59  64 S6        30.00S
WHEATON        MOSUNNY   72  63  73 SE5       29.98F
$$
  *****  WEATHER ELSEWHERE ACROSS MINNESOTA  *****

CITY           SKY/WX    TMP DP  RH WIND       PRES   REMARKS
DULUTH         MOSUNNY   69  55  60 S9G18     30.07F
6HR MIN TEMP:  46; 6HR MAX TEMP:  69;

INTRNTL FALLS  SUNNY     72  55  55 S6        30.00F
6HR MIN TEMP:  39; 6HR MAX TEMP:  72;

ELY            SUNNY     70  54  56 S6        30.05F
CLOQUET        PTSUNNY   70  54  56 S8        30.06F
BRAINERD       MOSUNNY   74  60  61 S12       30.02F
6HR MIN TEMP:  55; 6HR MAX TEMP:  74;

HIBBING        SUNNY     72  54  53 S8G17     30.04F
6HR MIN TEMP:  38; 6HR MAX TEMP:  73;

ALEXANDRIA     SUNNY     73  62  68 S10       30.01S
6HR MIN TEMP:  59; 6HR MAX TEMP:  73;

SAINT CLOUD    MOSUNNY   75  60  59 S17       30.02F
6HR MIN TEMP:  58; 6HR MAX TEMP:  75;

MINNEAPOLIS    PTSUNNY   73  56  54 S13       30.05F
6HR MIN TEMP:  60; 6HR MAX TEMP:  73;

$$

  *****  WEATHER ACROSS SOUTH DAKOTA  *****

CITY           SKY/WX    TMP DP  RH WIND       PRES   REMARKS
SIOUX FALLS    CLOUDY    74  65  73 SE9       30.00F
6HR MIN TEMP:  64; 6HR MAX TEMP:  74; 6HR PCP:  0.04;

BROOKINGS      CLOUDY    70  64  83 SE6       30.04S
WATERTOWN      CLOUDY    73  67  81 CALM      29.99R
6HR MIN TEMP:  62; 6HR MAX TEMP:  73; 6HR PCP:  0.02;

HURON          CLOUDY    74  66  76 S9        29.98S
6HR MIN TEMP:  64; 6HR MAX TEMP:  74; 6HR PCP:  0.02;

SISSETON         N/A     76  64  66 VRB5      29.95F
ABERDEEN       CLOUDY    79  67  66 CALM      29.96S
6HR MIN TEMP:  63; 6HR MAX TEMP:  80;

MITCHELL       PTSUNNY   78  68  71 E12       29.96F
PIERRE         CLOUDY    72  67  84 NE8       29.97R
6HR MIN TEMP:  67; 6HR MAX TEMP:  74; 6HR PCP:  0.07;

MOBRIDGE       CLOUDY    75  66  73 CALM      29.96F
RAPID CITY     CLOUDY    74  59  59 N14       30.04F
6HR MIN TEMP:  63; 6HR MAX TEMP:  74; 6HR PCP: TRACE;

$$

  *****  SOME WEATHER IN NEARBY STATES *****

CITY           SKY/WX    TMP DP  RH WIND       PRES   REMARKS
GLASGOW MT     MOSUNNY   79  58  48 S3        29.95F
6HR MIN TEMP:  57; 6HR MAX TEMP:  80;

GREAT FALLS MT CLOUDY    80  42  25 SW13      30.04F
6HR MIN TEMP:  57; 6HR MAX TEMP:  80;

CHEYENNE WY    MOSUNNY   75  49  39 NW18G28   30.20F
6HR MIN TEMP:  64; 6HR MAX TEMP:  76;

SCOTTSBLUFF NE PTSUNNY   84  62  47 NW16      30.03F
6HR MIN TEMP:  65; 6HR MAX TEMP:  84;

OMAHA NE       CLOUDY    77  63  61 S22G31    30.01F
6HR MIN TEMP:  65; 6HR MAX TEMP:  77; 6HR PCP: TRACE;

DES MOINES IA  LGT RAIN  66  59  78 E14       30.08F
6HR MIN TEMP:  59; 6HR MAX TEMP:  68; 6HR PCP:  0.03;

DAVENPORT IA   PTSUNNY   72  59  63 S7        30.18F
6HR MIN TEMP:  55; 6HR MAX TEMP:  72;

CHICAGO IL     MOSUNNY   71  52  50 SE5       30.19S
6HR MIN TEMP:  53; 6HR MAX TEMP:  72;

EAU CLAIRE WI  PTSUNNY   73  55  53 SW9       30.09F
6HR MIN TEMP:  50; 6HR MAX TEMP:  74;

LA CROSSE WI   PTSUNNY   74  57  55 S12       30.13F
6HR MIN TEMP:  52; 6HR MAX TEMP:  74;

$$

  *****  SOME NATIONAL WEATHER *****

CITY           SKY/WX    TMP DP  RH WIND       PRES   REMARKS
LA GUARDIA NY  PTSUNNY   79  53  40 NW13G24   30.04S



USA.gov is the U.S. government's official web portal to all federal, state and local government web resources and services.